FW2530 Weather Reports


Display with metric or nautical units.
time (UTC)temp
F
wind
direction
speed
MPH
gust
MPH
rain 1hr
in
rain 24hr
in
rain mn
in
humidity
%
barometer
mb
20260506202503 49 356 5.0 16.0 0.00 0.03 0.02 60 1011.2
20260506202003 49 8 6.0 12.0 0.00 0.03 0.02 60 1011.3
20260506201504 48 21 5.0 15.0 0.00 0.03 0.02 60 1011.3
20260506201004 48 18 5.0 12.0 0.00 0.03 0.02 63 1011.1
20260506200524 48 9 6.0 16.0 0.00 0.03 0.02 41 1011.2
20260506200024 48 8 7.0 20.0 0.00 0.03 0.02 40 1011.3
20260506195524 47 6 7.0 20.0 0.00 0.03 0.02 62 1011.2
20260506195003 47 4 6.0 13.0 0.00 0.03 0.02 63 1011.4
20260506194524 47 3 7.0 17.0 0.00 0.03 0.02 63 1011.4
20260506194024 47 360 7.0 19.0 0.00 0.03 0.02 63 1011.4
20260506193524 48 359 7.0 15.0 0.00 0.03 0.02 62 1011.3
20260506193003 48 360 7.0 19.0 0.00 0.03 0.02 61 1011.3
20260506192504 48 359 7.0 19.0 0.00 0.03 0.02 63 1011.3
20260506192003 48 360 8.0 21.0 0.00 0.03 0.02 62 1011.4
20260506191504 48 360 7.0 20.0 0.00 0.03 0.02 63 1011.3
20260506191003 47 6 8.0 17.0 0.00 0.03 0.02 63 1011.4
20260506190503 47 10 8.0 19.0 0.00 0.03 0.02 63 1011.3
20260506190003 47 1 7.0 19.0 0.00 0.03 0.02 63 1011.5
20260506185503 48 1 7.0 19.0 0.00 0.04 0.02 63 1011.5
20260506185003 48 359 9.0 19.0 0.00 0.04 0.02 62 1011.5
20260506184503 48 348 9.0 20.0 0.00 0.05 0.02 63 1011.6
20260506184003 48 345 8.0 23.0 0.00 0.06 0.02 63 1011.6
20260506183503 47 346 7.0 17.0 0.00 0.06 0.02 63 1011.5
20260506183003 47 352 6.0 15.0 0.00 0.06 0.02 64 1011.4
20260506182503 47 3 8.0 19.0 0.00 0.06 0.02 63 1011.4
20260506182003 48 2 8.0 19.0 0.00 0.06 0.02 62 1011.3
20260506181503 48 3 8.0 16.0 0.00 0.06 0.02 63 1011.2
20260506181004 48 4 7.0 20.0 0.00 0.06 0.02 63 1010.9
20260506180504 48 1 7.0 15.0 0.00 0.07 0.02 63 1010.9
20260506180005 49 359 8.0 16.0 0.00 0.07 0.02 62 1010.8
20260506175504 49 3 8.0 17.0 0.00 0.07 0.02 62 1010.7
20260506175025 50 360 8.0 17.0 0.00 0.07 0.02 62 1010.7
20260506174505 50 359 8.0 17.0 0.00 0.07 0.02 63 1010.6
20260506174004 50 9 9.0 24.0 0.00 0.07 0.02 62 1010.7
20260506173525 50 5 8.0 17.0 0.00 0.07 0.02 62 1010.7
20260506173005 51 350 8.0 19.0 0.00 0.07 0.02 63 1010.7
20260506172504 51 345 8.0 19.0 0.00 0.07 0.02 62 1010.7
20260506172005 51 356 8.0 21.0 0.00 0.07 0.02 62 1010.6
20260506171504 52 356 7.0 15.0 0.00 0.07 0.02 62 1010.6
20260506171005 52 346 7.0 17.0 0.00 0.07 0.02 62 1010.6
20260506170504 52 355 6.0 16.0 0.00 0.07 0.02 62 1010.4
20260506170004 52 358 7.0 16.0 0.00 0.07 0.02 63 1010.4
20260506165504 52 5 9.0 19.0 0.00 0.07 0.02 62 1010.3
20260506165005 53 8 8.0 23.0 0.00 0.07 0.02 63 1010.2
20260506164504 53 5 6.0 16.0 0.00 0.07 0.02 63 1010.2
20260506164004 53 4 6.0 19.0 0.00 0.07 0.02 63 1010.4
20260506163504 53 2 7.0 13.0 0.00 0.07 0.02 64 1010.5
20260506163004 53 2 7.0 20.0 0.00 0.07 0.02 64 1010.5
20260506162504 53 3 8.0 17.0 0.00 0.07 0.02 64 1010.5
20260506162005 53 357 8.0 19.0 0.00 0.07 0.02 64 1010.3
20260506161505 53 344 7.0 16.0 0.00 0.07 0.02 64 1010.2
20260506161004 53 344 7.0 17.0 0.00 0.07 0.02 64 1010.2
20260506160504 53 342 7.0 17.0 0.00 0.07 0.02 67 1010.1
20260506160004 53 336 7.0 15.0 0.00 0.07 0.02 66 1010.2
20260506155505 53 351 7.0 17.0 0.00 0.07 0.02 67 1010.1
20260506155004 53 4 6.0 17.0 0.00 0.07 0.02 67 1010.0
20260506154504 53 8 6.0 16.0 0.00 0.07 0.02 67 1010.0
20260506154004 53 15 5.0 15.0 0.00 0.07 0.02 67 1009.9
20260506153504 53 13 5.0 19.0 0.00 0.07 0.02 68 1009.9
20260506153004 52 10 6.0 17.0 0.00 0.07 0.02 68 1009.9
20260506152504 52 8 6.0 16.0 0.00 0.07 0.02 70 1009.8
20260506152004 52 4 6.0 12.0 0.00 0.07 0.02 71 1009.8
20260506151505 52 10 5.0 13.0 0.00 0.07 0.02 72 1009.7
20260506151004 52 9 5.0 21.0 0.00 0.07 0.02 50 1009.7
20260506150525 51 356 5.0 12.0 0.00 0.07 0.02 73 1009.8
20260506150005 51 349 5.0 16.0 0.00 0.07 0.02 72 1009.7
20260506145504 51 351 6.0 15.0 0.00 0.07 0.02 74 1009.7
20260506145025 51 346 6.0 15.0 0.00 0.07 0.02 74 1009.4
20260506144504 51 348 5.0 11.0 0.00 0.07 0.02 75 1009.4
20260506144004 50 5 6.0 11.0 0.00 0.07 0.02 75 1009.3
20260506143504 50 9 6.0 15.0 0.00 0.07 0.02 77 1009.3
20260506143004 50 350 5.0 15.0 0.00 0.07 0.02 77 1009.3
20260506142504 50 338 4.0 12.0 0.00 0.07 0.02 77 1009.1
20260506142004 49 360 5.0 8.0 0.00 0.07 0.02 77 1009.1
20260506141504 48 354 5.0 13.0 0.00 0.07 0.02 77 1009.0
20260506141004 48 354 5.0 12.0 0.00 0.07 0.02 77 1009.0
20260506140505 47 11 6.0 15.0 0.00 0.07 0.02 77 1008.9
20260506140004 47 10 6.0 19.0 0.00 0.07 0.02 77 1008.6
20260506135505 46 7 5.0 19.0 0.00 0.07 0.02 75 1008.5
20260506135004 46 5 6.0 12.0 0.00 0.07 0.02 75 1008.5
20260506134525 45 356 5.0 13.0 0.00 0.07 0.02 75 1008.5
20260506134005 45 341 5.0 12.0 0.00 0.07 0.02 75 1008.4
20260506133504 44 346 5.0 13.0 0.00 0.07 0.02 75 1008.5
20260506133025 44 343 4.0 12.0 0.00 0.07 0.02 75 1008.6
20260506132504 44 336 3.0 11.0 0.00 0.07 0.02 75 1008.4
20260506132005 44 343 3.0 11.0 0.00 0.07 0.02 75 1008.5
20260506131504 44 333 4.0 5.0 0.00 0.07 0.02 77 1008.4
20260506131004 43 332 4.0 11.0 0.00 0.07 0.02 77 1008.5
20260506130504 43 327 3.0 8.0 0.00 0.07 0.02 77 1008.3
20260506130005 42 335 3.0 7.0 0.00 0.07 0.02 77 1008.3
20260506125504 42 353 3.0 7.0 0.00 0.07 0.02 77 1008.2
20260506125004 42 360 3.0 13.0 0.00 0.07 0.02 77 1008.2
20260506124504 42 360 3.0 11.0 0.00 0.07 0.02 77 1008.2
20260506124004 42 360 3.0 7.0 0.00 0.07 0.02 77 1008.1
20260506123504 42 360 3.0 8.0 0.00 0.07 0.02 77 1008.1
20260506123004 41 360 3.0 7.0 0.00 0.07 0.02 77 1008.0
20260506122504 41 360 3.0 7.0 0.00 0.07 0.02 77 1008.0
20260506122004 41 360 4.0 11.0 0.00 0.07 0.02 77 1008.0
20260506121504 41 360 3.0 11.0 0.00 0.07 0.02 77 1008.0
20260506121004 42 360 2.0 5.0 0.00 0.07 0.02 77 1008.1
20260506120525 42 360 2.0 8.0 0.00 0.07 0.02 77 1008.0
20260506120005 42 360 2.0 7.0 0.00 0.07 0.02 77 1008.0
20260506115504 42 360 2.0 7.0 0.00 0.07 0.02 77 1007.8
20260506115004 42 360 1.0 7.0 0.00 0.07 0.02 77 1007.8
20260506114504 42 360 1.0 5.0 0.00 0.07 0.02 77 1007.7
20260506114004 42 360 1.0 8.0 0.00 0.07 0.02 77 1007.7
20260506113504 42 360 1.0 4.0 0.00 0.07 0.02 77 1007.7
20260506113004 42 360 1.0 5.0 0.00 0.07 0.02 77 1007.6
20260506112525 42 360 2.0 5.0 0.00 0.07 0.02 77 1007.4
20260506112005 42 360 1.0 8.0 0.00 0.07 0.02 77 1007.4
20260506111504 42 360 1.0 5.0 0.00 0.07 0.02 77 1007.2
20260506111004 42 360 1.0 4.0 0.00 0.07 0.02 77 1007.0
20260506110504 42 360 1.0 4.0 0.00 0.07 0.02 77 1007.1
20260506110004 43 360 2.0 7.0 0.00 0.07 0.02 77 1007.0
20260506105504 43 360 1.0 5.0 0.00 0.07 0.02 77 1006.8
20260506105004 44 360 1.0 4.0 0.00 0.07 0.02 77 1006.8
20260506104504 44 360 1.0 7.0 0.00 0.07 0.02 77 1006.8
20260506104004 44 344 2.0 7.0 0.00 0.07 0.02 77 1006.8
20260506103504 45 301 1.0 8.0 0.00 0.07 0.02 77 1006.7
20260506103005 45 268 1.0 4.0 0.00 0.07 0.02 77 1006.7
20260506102504 45 266 1.0 4.0 0.00 0.07 0.02 77 1006.5
20260506102004 45 264 0.0 5.0 0.00 0.07 0.02 78 1006.4
20260506101525 46 258 0.0 3.0 0.00 0.07 0.02 78 1006.3
20260506101025 46 244 1.0 3.0 0.00 0.07 0.02 78 1006.4
20260506100504 46 234 1.0 5.0 0.00 0.07 0.02 78 1006.5
20260506100025 46 222 0.0 4.0 0.00 0.07 0.02 78 1006.4
20260506095504 46 218 0.0 1.0 0.00 0.07 0.02 78 1006.4
20260506095004 46 218 0.0 4.0 0.00 0.07 0.02 77 1006.5
20260506094504 46 218 0.0 1.0 0.00 0.07 0.02 77 1006.7
20260506094004 46 214 0.0 3.0 0.00 0.07 0.02 77 1006.8
20260506093504 46 209 0.0 4.0 0.00 0.07 0.02 77 1006.8
20260506093004 46 197 0.0 0.0 0.00 0.07 0.02 77 1006.5
20260506092504 46 195 1.0 3.0 0.00 0.07 0.02 77 1006.2
20260506092004 46 198 2.0 5.0 0.00 0.07 0.02 77 1006.0
20260506091525 46 209 2.0 7.0 0.00 0.07 0.02 77 1006.0
20260506091004 46 222 2.0 7.0 0.00 0.07 0.02 77 1005.9
20260506090504 46 222 1.0 4.0 0.00 0.07 0.02 77 1006.1
20260506090004 46 222 1.0 4.0 0.00 0.07 0.02 77 1006.5
20260506085504 46 221 2.0 4.0 0.00 0.07 0.02 77 1006.5
20260506085004 46 224 3.0 8.0 0.00 0.07 0.02 77 1006.7
20260506084525 46 228 3.0 8.0 0.00 0.07 0.02 77 1006.7
20260506084004 46 233 2.0 5.0 0.00 0.07 0.02 77 1006.8
20260506083525 46 234 1.0 5.0 0.00 0.07 0.02 77 1006.9
20260506083004 47 234 1.0 3.0 0.00 0.07 0.02 77 1006.9
20260506082504 47 234 1.0 5.0 0.00 0.07 0.02 77 1006.8
20260506082004 47 234 1.0 3.0 0.00 0.07 0.02 77 1006.8
20260506081504 47 235 1.0 3.0 0.00 0.07 0.02 77 1006.7
20260506081004 47 235 1.0 5.0 0.00 0.07 0.02 77 1006.8
20260506080504 47 235 0.0 3.0 0.00 0.07 0.02 77 1006.8
20260506073504 47 235 1.0 7.0 0.00 0.07 0.02 77 1007.0
20260506073004 47 236 0.0 4.0 0.00 0.07 0.02 77 1007.0
20260506072504 47 0 0.0 1.0 0.00 0.07 0.02 77 1007.2
20260506072004 47 236 0.0 0.0 0.00 0.07 0.02 77 1007.0
20260506071504 47 236 0.0 1.0 0.00 0.07 0.02 77 1006.9
20260506071025 47 235 0.0 3.0 0.00 0.07 0.02 77 1007.0
20260506070525 47 234 0.0 4.0 0.00 0.07 0.02 77 1007.2
20260506062505 47 224 2.0 5.0 0.01 0.07 0.02 77 1006.7
20260506062003 47 224 2.0 5.0 0.01 0.07 0.02 77 1006.6
20260506061504 47 223 1.0 4.0 0.01 0.07 0.02 77 1006.8
20260506061004 48 224 1.0 4.0 0.01 0.07 0.02 77 1006.8
20260506060504 48 224 2.0 7.0 0.01 0.07 0.02 77 1006.9
20260506051003 48 227 3.0 9.0 0.01 0.06 0.01 78 1007.0
20260506050525 48 226 2.0 7.0 0.01 0.06 0.01 78 1006.9
20260506045004 48 245 3.0 7.0 0.02 0.06 0.01 79 1007.0
20260506044504 48 230 2.0 7.0 0.02 0.06 0.01 79 1007.1
20260506044004 48 187 3.0 7.0 0.02 0.06 0.01 79 1007.0
20260506043505 48 177 5.0 8.0 0.02 0.06 0.00 79 1006.9
20260506043005 48 175 5.0 11.0 0.02 0.06 0.00 79 1007.0
20260506042525 48 182 4.0 9.0 0.02 0.06 0.00 79 1007.0
20260506042004 48 187 5.0 8.0 0.02 0.06 0.00 79 1007.2
20260506041504 48 189 5.0 8.0 0.02 0.06 0.00 80 1007.4
20260506041004 48 192 5.0 8.0 0.02 0.06 0.00 80 1007.4
20260506040525 48 192 5.0 9.0 0.02 0.06 0.00 80 1007.4
20260506040004 48 192 5.0 9.0 0.02 0.06 0.00 80 1007.4
20260506035504 48 198 5.0 11.0 0.01 0.05 0.05 80 1007.4
20260506035004 48 208 5.0 8.0 0.01 0.05 0.05 81 1007.5
20260506034504 48 216 4.0 7.0 0.01 0.05 0.05 81 1007.5
20260506034004 48 219 3.0 7.0 0.00 0.04 0.04 81 1007.5
20260506033503 48 217 1.0 5.0 0.00 0.04 0.04 81 1007.6
20260506033005 48 216 2.0 4.0 0.00 0.04 0.04 81 1007.7
20260506032503 48 212 3.0 8.0 0.00 0.04 0.04 81 1007.8
20260506032025 48 211 3.0 7.0 0.00 0.04 0.04 81 1007.7
20260506031503 48 216 2.0 7.0 0.00 0.04 0.04 81 1007.8
20260506031003 48 221 2.0 5.0 0.00 0.04 0.04 81 1007.7
20260506030504 49 221 3.0 7.0 0.00 0.04 0.04 81 1007.7
20260506030003 48 222 3.0 5.0 0.00 0.04 0.04 81 1007.6
20260506025524 49 212 3.0 5.0 0.00 0.04 0.04 81 1007.5
20260506025004 49 188 3.0 7.0 0.00 0.04 0.04 81 1007.5
20260506024504 49 180 4.0 7.0 0.00 0.04 0.04 82 1007.3
20260506024003 49 178 4.0 9.0 0.00 0.04 0.04 82 1007.3
20260506023503 49 194 4.0 7.0 0.00 0.04 0.04 82 1007.3
20260506023004 49 212 4.0 9.0 0.00 0.04 0.04 82 1007.3
20260506022504 49 202 5.0 7.0 0.00 0.04 0.04 82 1007.4
20260506022004 49 185 5.0 8.0 0.00 0.04 0.04 82 1007.4
20260506021504 49 178 5.0 11.0 0.00 0.04 0.04 83 1007.4
20260506021004 49 164 6.0 9.0 0.00 0.04 0.04 83 1007.5
20260506020504 50 162 5.0 11.0 0.00 0.04 0.04 83 1007.4
20260506020004 50 174 4.0 11.0 0.00 0.06 0.04 83 1007.4
20260506015504 50 178 4.0 7.0 0.00 0.06 0.04 84 1007.5
20260506015004 50 185 4.0 8.0 0.00 0.06 0.04 84 1007.5
20260506014504 50 198 4.0 8.0 0.00 0.06 0.04 85 1007.5
20260506014003 50 213 3.0 12.0 0.00 0.07 0.04 85 1007.4
20260506013525 50 225 3.0 5.0 0.00 0.08 0.04 85 1007.3
20260506013004 50 252 3.0 5.0 0.00 0.08 0.04 85 1007.3
20260506012525 50 306 2.0 7.0 0.00 0.08 0.04 85 1007.3
20260506012004 50 342 1.0 4.0 0.00 0.08 0.04 85 1007.2
20260506011504 50 342 2.0 4.0 0.00 0.08 0.04 85 1007.1
20260506011024 50 342 2.0 4.0 0.00 0.08 0.04 84 1007.1
20260506010504 50 342 1.0 4.0 0.00 0.08 0.04 84 1006.9
20260506010004 50 342 1.0 3.0 0.00 0.08 0.04 84 1006.9
20260506005504 50 341 1.0 4.0 0.00 0.08 0.04 84 1006.9
20260506005004 50 341 1.0 3.0 0.00 0.08 0.04 84 1006.6
20260506004504 50 341 1.0 4.0 0.00 0.08 0.04 84 1006.7
20260506004004 50 341 2.0 4.0 0.00 0.08 0.04 84 1006.7
20260506003504 50 341 1.0 4.0 0.00 0.08 0.04 83 1006.6
20260506003003 50 340 2.0 4.0 0.00 0.08 0.04 83 1006.6
20260506002504 50 340 2.0 5.0 0.00 0.08 0.04 83 1006.5
20260506002004 50 340 1.0 5.0 0.00 0.08 0.04 83 1006.5
20260506001504 50 0 0.0 0.0 0.00 0.08 0.04 83 1006.4
20260506001004 50 0 0.0 0.0 0.00 0.08 0.04 83 1006.4
20260506000504 50 0 0.0 0.0 0.00 0.08 0.04 83 1006.2
20260506000004 51 0 0.0 0.0 0.00 0.08 0.04 82 1006.4
20260505235503 51 0 0.0 0.0 0.00 0.08 0.04 82 1006.3
20260505235003 51 0 0.0 0.0 0.00 0.08 0.04 82 1006.4
20260505234504 51 0 0.0 0.0 0.00 0.08 0.04 82 1006.1
20260505234004 51 0 0.0 0.0 0.00 0.08 0.04 82 1006.2
20260505233525 51 0 0.0 0.0 0.00 0.08 0.04 82 1006.3
20260505233004 51 0 0.0 0.0 0.00 0.08 0.04 81 1006.2
20260505232503 51 0 0.0 0.0 0.00 0.08 0.04 81 1006.3
20260505232025 51 0 0.0 0.0 0.00 0.08 0.04 81 1006.3
20260505231504 51 336 0.0 0.0 0.00 0.08 0.04 81 1006.4
20260505231004 51 336 0.0 3.0 0.00 0.08 0.04 81 1006.4
20260505230525 51 336 0.0 3.0 0.00 0.08 0.04 81 1006.4
20260505230004 51 336 1.0 0.0 0.00 0.08 0.04 81 1006.4
20260505225525 51 336 1.0 5.0 0.00 0.08 0.04 81 1006.5
20260505225024 51 336 1.0 3.0 0.00 0.08 0.04 81 1006.4
20260505224503 51 336 1.0 3.0 0.00 0.08 0.04 82 1006.5
20260505224003 51 336 1.0 4.0 0.00 0.08 0.04 81 1006.5
20260505223504 51 336 0.0 3.0 0.00 0.08 0.04 82 1006.4
20260505223003 51 336 0.0 3.0 0.00 0.08 0.04 82 1006.5
20260505222503 51 336 0.0 0.0 0.00 0.08 0.04 82 1006.5
20260505222003 51 336 0.0 3.0 0.00 0.08 0.04 82 1006.4
20260505221503 51 336 0.0 3.0 0.00 0.08 0.04 82 1006.5
20260505221003 51 336 0.0 1.0 0.00 0.08 0.04 83 1006.6
20260505220504 51 336 0.0 0.0 0.00 0.08 0.04 83 1006.6
20260505220024 50 336 0.0 4.0 0.00 0.08 0.04 83 1006.6
20260505215504 50 0 0.0 1.0 0.00 0.08 0.04 83 1006.6
20260505215003 50 336 0.0 0.0 0.00 0.08 0.04 83 1006.6
20260505214504 50 336 0.0 3.0 0.00 0.08 0.04 83 1006.6
20260505214004 50 336 0.0 3.0 0.00 0.08 0.04 83 1006.6
20260505213503 50 336 0.0 0.0 0.00 0.08 0.04 83 1006.6
20260505213003 50 336 1.0 1.0 0.00 0.08 0.04 83 1006.7
20260505212503 50 336 1.0 4.0 0.00 0.08 0.04 83 1006.8
20260505212025 50 336 1.0 4.0 0.00 0.08 0.04 83 1006.8
20260505211503 50 336 0.0 1.0 0.00 0.08 0.04 83 1006.7
20260505211003 50 336 1.0 3.0 0.00 0.08 0.04 83 1006.6
20260505210503 50 336 1.0 4.0 0.00 0.08 0.04 83 1006.7
20260505210003 50 336 0.0 4.0 0.00 0.08 0.04 83 1006.7
20260505205503 50 336 0.0 3.0 0.00 0.08 0.04 83 1006.7
20260505205003 50 335 1.0 3.0 0.00 0.08 0.04 83 1006.7
20260505204503 50 334 1.0 5.0 0.00 0.08 0.04 83 1006.7
20260505204003 50 333 1.0 5.0 0.00 0.08 0.04 83 1006.7
20260505203504 50 332 1.0 3.0 0.00 0.08 0.04 83 1006.7
20260505203004 50 331 1.0 5.0 0.00 0.08 0.04 83 1006.8